date_onset,state,count
2020-01-13,NSW,0
2020-01-14,NSW,0
2020-01-15,NSW,0
2020-01-16,NSW,0
2020-01-17,NSW,0
2020-01-18,NSW,0
2020-01-19,NSW,0
2020-01-20,NSW,0
2020-01-21,NSW,0
2020-01-22,NSW,0
2020-01-23,NSW,0
2020-01-24,NSW,0
2020-01-25,NSW,0
2020-01-26,NSW,0
2020-01-27,NSW,0
2020-01-28,NSW,0
2020-01-29,NSW,0
2020-01-30,NSW,0
2020-01-31,NSW,0
2020-02-01,NSW,1
2020-02-02,NSW,0
2020-02-03,NSW,0
2020-02-04,NSW,0
2020-02-05,NSW,0
2020-02-06,NSW,0
2020-02-07,NSW,0
2020-02-08,NSW,1
2020-02-09,NSW,0
2020-02-10,NSW,0
2020-02-11,NSW,0
2020-02-12,NSW,0
2020-02-13,NSW,1
2020-02-14,NSW,0
2020-02-15,NSW,1
2020-02-16,NSW,2
2020-02-17,NSW,1
2020-02-18,NSW,1
2020-02-19,NSW,0
2020-02-20,NSW,1
2020-02-21,NSW,0
2020-02-22,NSW,0
2020-02-23,NSW,0
2020-02-24,NSW,3
2020-02-25,NSW,0
2020-02-26,NSW,2
2020-02-27,NSW,1
2020-02-28,NSW,1
2020-02-29,NSW,4
2020-03-01,NSW,3
2020-03-02,NSW,5
2020-03-03,NSW,3
2020-03-04,NSW,7
2020-03-05,NSW,9
2020-03-06,NSW,7
2020-03-07,NSW,8
2020-03-08,NSW,12
2020-03-09,NSW,24
2020-03-10,NSW,26
2020-03-11,NSW,15
2020-03-12,NSW,17
2020-03-13,NSW,25
2020-03-14,NSW,25
2020-03-15,NSW,18
2020-03-16,NSW,48
2020-03-17,NSW,56
2020-03-18,NSW,52
2020-03-19,NSW,54
2020-03-20,NSW,53
2020-03-21,NSW,59
2020-03-22,NSW,44
2020-03-23,NSW,67
2020-03-24,NSW,70
2020-03-25,NSW,58
2020-03-26,NSW,45
2020-03-27,NSW,41
2020-03-28,NSW,50
2020-03-29,NSW,56
2020-03-30,NSW,37
2020-03-31,NSW,15
2020-04-01,NSW,24
2020-04-02,NSW,20
2020-04-03,NSW,13
2020-04-04,NSW,15
2020-04-05,NSW,19
2020-04-06,NSW,15
2020-04-07,NSW,10
2020-04-08,NSW,8
2020-04-09,NSW,15
2020-04-10,NSW,5
2020-04-11,NSW,11
2020-04-12,NSW,6
2020-04-13,NSW,10
2020-04-14,NSW,10
2020-04-15,NSW,7
2020-04-16,NSW,5
2020-04-17,NSW,14
2020-04-18,NSW,4
2020-04-19,NSW,2
2020-04-20,NSW,5
2020-04-21,NSW,2
2020-04-22,NSW,7
2020-04-23,NSW,5
2020-04-24,NSW,3
2020-04-25,NSW,5
2020-04-26,NSW,2
2020-04-27,NSW,1
2020-04-28,NSW,2
2020-04-29,NSW,4
2020-04-30,NSW,4
2020-05-01,NSW,5
2020-05-02,NSW,2
2020-05-03,NSW,0
2020-05-04,NSW,3
2020-05-05,NSW,4
2020-05-06,NSW,0
2020-05-07,NSW,1
2020-05-08,NSW,1
2020-05-09,NSW,0
2020-05-10,NSW,0
2020-05-11,NSW,0
2020-05-12,NSW,1
2020-05-13,NSW,0
2020-05-14,NSW,0
2020-05-15,NSW,0
2020-05-16,NSW,0
2020-05-17,NSW,0
2020-05-18,NSW,0
2020-05-19,NSW,1
2020-05-20,NSW,0
2020-05-21,NSW,0
2020-05-22,NSW,0
2020-05-23,NSW,0
2020-05-24,NSW,0
2020-05-25,NSW,0
2020-05-26,NSW,0
2020-05-27,NSW,0
2020-05-28,NSW,0
2020-05-29,NSW,0
2020-05-30,NSW,0
2020-05-31,NSW,0
2020-06-01,NSW,0
2020-06-02,NSW,0
2020-06-03,NSW,0
2020-06-04,NSW,0
2020-06-05,NSW,0
2020-06-06,NSW,0
2020-06-07,NSW,0
2020-06-08,NSW,0
2020-06-09,NSW,1
2020-06-10,NSW,1
2020-06-11,NSW,1
2020-06-12,NSW,0
2020-06-13,NSW,0
2020-06-14,NSW,0
2020-06-15,NSW,0
2020-06-16,NSW,0
2020-06-17,NSW,0
2020-06-18,NSW,0
2020-06-19,NSW,1
2020-06-20,NSW,1
2020-06-21,NSW,0
2020-06-22,NSW,0
2020-06-23,NSW,0
2020-06-24,NSW,1
2020-06-25,NSW,0
2020-06-26,NSW,0
2020-06-27,NSW,1
2020-06-28,NSW,0
2020-06-29,NSW,0
2020-06-30,NSW,2
2020-07-01,NSW,2
2020-07-02,NSW,1
2020-07-03,NSW,1
2020-07-04,NSW,1
2020-07-05,NSW,0
2020-07-06,NSW,3
2020-07-07,NSW,7
2020-07-08,NSW,2
2020-07-09,NSW,5
2020-07-10,NSW,9
2020-07-11,NSW,5
2020-07-12,NSW,10
2020-07-13,NSW,3
2020-07-14,NSW,9
2020-07-15,NSW,13
2020-07-16,NSW,10
2020-07-17,NSW,11
2020-07-18,NSW,11
2020-07-19,NSW,14
2020-07-20,NSW,12
2020-07-21,NSW,10
2020-07-22,NSW,17
2020-07-23,NSW,10
2020-07-24,NSW,12
2020-07-25,NSW,13
2020-07-26,NSW,12
2020-07-27,NSW,16
2020-07-28,NSW,14
2020-07-29,NSW,18
2020-07-30,NSW,15
2020-07-31,NSW,7
2020-08-01,NSW,9
2020-08-02,NSW,12
2020-08-03,NSW,12
2020-08-04,NSW,15
2020-08-05,NSW,15
2020-08-06,NSW,11
2020-08-07,NSW,10
2020-08-08,NSW,10
2020-08-09,NSW,15
2020-08-10,NSW,10
2020-08-11,NSW,7
2020-08-12,NSW,3
2020-08-13,NSW,3
2020-08-14,NSW,5
2020-08-15,NSW,1
2020-08-16,NSW,1
2020-08-17,NSW,6
2020-08-18,NSW,2
2020-08-19,NSW,1
2020-08-20,NSW,2
2020-08-21,NSW,7
2020-08-22,NSW,3
2020-08-23,NSW,3
2020-08-24,NSW,10
2020-08-25,NSW,9
2020-08-26,NSW,8
2020-08-27,NSW,10
2020-08-28,NSW,8
2020-08-29,NSW,10
2020-08-30,NSW,8
2020-08-31,NSW,8
2020-09-01,NSW,7
2020-09-02,NSW,6
2020-09-03,NSW,6
2020-09-04,NSW,3
2020-09-05,NSW,5
2020-09-06,NSW,3
2020-09-07,NSW,7
2020-09-08,NSW,6
2020-09-09,NSW,4
2020-09-10,NSW,4
2020-09-11,NSW,7
2020-09-12,NSW,0
2020-09-13,NSW,3
2020-09-14,NSW,0
2020-09-15,NSW,2
2020-09-16,NSW,1
2020-09-17,NSW,1
2020-09-18,NSW,1
2020-09-19,NSW,0
2020-09-20,NSW,1
2020-09-21,NSW,0
2020-09-22,NSW,1
2020-09-23,NSW,0
2020-09-24,NSW,0
2020-09-25,NSW,1
2020-09-26,NSW,0
2020-09-27,NSW,0
2020-09-28,NSW,2
2020-09-29,NSW,2
2020-09-30,NSW,1
2020-10-01,NSW,2
2020-10-02,NSW,3
2020-10-03,NSW,4
2020-10-04,NSW,1
2020-10-05,NSW,0
2020-10-06,NSW,3
2020-10-07,NSW,8
2020-10-08,NSW,1
2020-10-09,NSW,3
2020-10-10,NSW,0
2020-10-11,NSW,4
2020-10-12,NSW,10
2020-10-13,NSW,2
2020-10-14,NSW,2
2020-10-15,NSW,1
2020-10-16,NSW,2
2020-10-17,NSW,1
2020-10-18,NSW,1
2020-10-19,NSW,0
2020-10-20,NSW,1
2020-10-21,NSW,0
2020-10-22,NSW,0
2020-10-23,NSW,4
2020-10-24,NSW,1
2020-10-25,NSW,1
2020-10-26,NSW,1
2020-10-27,NSW,0
2020-10-28,NSW,2
2020-10-29,NSW,1
2020-10-30,NSW,1
2020-10-31,NSW,2
2020-11-01,NSW,2
2020-11-02,NSW,0
2020-11-03,NSW,0
2020-11-04,NSW,1
2020-11-05,NSW,3
2020-11-06,NSW,0
2020-11-07,NSW,0
2020-11-08,NSW,0
2020-11-09,NSW,0
2020-11-10,NSW,0
2020-11-11,NSW,0
2020-11-12,NSW,0
2020-11-13,NSW,0
2020-11-14,NSW,0
2020-11-15,NSW,0
2020-11-16,NSW,0
2020-11-17,NSW,0
2020-11-18,NSW,0
2020-11-19,NSW,0
2020-11-20,NSW,0
2020-11-21,NSW,0
2020-11-22,NSW,0
2020-11-23,NSW,0
2020-11-24,NSW,0
2020-11-25,NSW,0
2020-11-26,NSW,0
2020-11-27,NSW,0
2020-11-28,NSW,1
2020-11-29,NSW,0
2020-11-30,NSW,0
2020-12-01,NSW,0
2020-12-02,NSW,0
2020-12-03,NSW,0
2020-12-04,NSW,0
2020-12-05,NSW,0
2020-12-06,NSW,0
2020-12-07,NSW,0
2020-12-08,NSW,0
2020-12-09,NSW,0
2020-12-10,NSW,3
2020-12-11,NSW,1
2020-12-12,NSW,1
2020-12-13,NSW,1
2020-12-14,NSW,6
2020-12-15,NSW,10
2020-12-16,NSW,18
2020-12-17,NSW,18
2020-12-18,NSW,26
2020-12-19,NSW,14
2020-12-20,NSW,9
2020-12-21,NSW,9
2020-12-22,NSW,4
2020-12-23,NSW,11
2020-12-24,NSW,9
2020-12-25,NSW,9
2020-12-26,NSW,6
2020-12-27,NSW,7
2020-12-28,NSW,6
2020-12-29,NSW,11
2020-12-30,NSW,5
2020-12-31,NSW,8
2021-01-01,NSW,3
2021-01-02,NSW,1
2021-01-03,NSW,5
2021-01-04,NSW,2
2021-01-05,NSW,1
2021-01-06,NSW,3
2021-01-07,NSW,0
2021-01-08,NSW,2
2021-01-09,NSW,0
2021-01-10,NSW,1
2021-01-11,NSW,1
2021-01-12,NSW,0
2021-01-13,NSW,0
2021-01-14,NSW,1
2021-01-15,NSW,4
2021-01-16,NSW,2
2021-01-17,NSW,0
2021-01-18,NSW,0
2021-01-19,NSW,0
2021-01-20,NSW,0
2021-01-21,NSW,0
2021-01-22,NSW,0
2021-01-23,NSW,0
2021-01-24,NSW,1
